Location: Ferchesar
(52.6477°N, 12.4298°E)
Time: 04:21:16
(UTC+01:00)

Vanguard 1 - Pass Details

Date: 14 December 2021
Orbit: 652 x 3830 km, 34.2° (Epoch: 21 January)

Event Time Altitude Azimuth Distance (km) Brightness Sun altitude
Exits shadow 05:20:34 14° 238° (WSW) 6,280 13.7 -24.9°
Maximum altitude 05:21:46 14° 235° (SW) 6,219 13.7 -24.7°
Drops below altitude 10° 05:30:02 10° 209° (SSW) 6,082 13.9 -23.5°
Sets 05:37:37 0° 188° (S) 6,459 14.3 -22.3°
